TimeEST,TemperatureF,Dew PointF,Humidity,Sea Level PressureIn,VisibilityMPH,Wind Direction,Wind SpeedMPH,Gust SpeedMPH,PrecipitationIn,Events,Conditions,WindDirDegrees,DateUTC
12:23 AM,30.0,26.1,85,30.14,1.8,East,5.8,-,N/A,,Overcast,90,2014-02-05 05:23:00
12:28 AM,30.0,26.1,85,30.13,2.0,East,8.1,-,N/A,,Overcast,80,2014-02-05 05:28:00
12:32 AM,30.0,26.1,85,30.13,3.0,East,6.9,-,N/A,Rain,Light Freezing Rain,80,2014-02-05 05:32:00
12:51 AM,30.2,26.6,86,30.12,4.0,ESE,5.8,-,N/A,Rain,Light Freezing Rain,110,2014-02-05 05:51:00
12:53 AM,30.0,26.1,85,30.14,4.0,East,6.9,-,N/A,Rain,Light Freezing Rain,100,2014-02-05 05:53:00
1:00 AM,30.0,26.1,85,30.11,2.5,East,5.8,-,0.01,Rain,Light Freezing Rain,90,2014-02-05 06:00:00
1:10 AM,30.0,26.1,85,30.11,2.5,East,4.6,-,0.03,Rain,Light Freezing Rain,100,2014-02-05 06:10:00
1:15 AM,30.0,26.1,85,30.10,3.0,East,4.6,-,0.04,Rain,Light Freezing Rain,100,2014-02-05 06:15:00
1:24 AM,30.0,26.1,85,30.09,3.0,East,6.9,-,0.05,Rain,Light Freezing Rain,90,2014-02-05 06:24:00
1:32 AM,30.0,26.1,85,30.10,2.5,East,4.6,-,0.07,Rain,Light Freezing Rain,100,2014-02-05 06:32:00
1:41 AM,30.0,27.0,88,30.10,4.0,East,3.5,-,0.07,Rain,Light Freezing Rain,80,2014-02-05 06:41:00
1:53 AM,30.0,27.0,88,30.11,4.0,East,4.6,-,0.07,Rain,Light Freezing Rain,100,2014-02-05 06:53:00
2:53 AM,30.9,27.0,85,30.05,3.0,NE,5.8,-,0.02,Rain,Light Freezing Rain,40,2014-02-05 07:53:00
3:35 AM,30.9,27.0,85,30.02,3.0,North,6.9,-,0.00,Rain,Light Freezing Rain,360,2014-02-05 08:35:00
3:43 AM,30.9,28.0,89,30.02,2.5,North,8.1,-,0.00,Rain,Light Freezing Rain,360,2014-02-05 08:43:00
3:50 AM,30.2,26.6,86,30.02,3.0,North,6.9,-,0.01,,Overcast,360,2014-02-05 08:50:00
3:53 AM,30.9,27.0,85,30.03,3.0,NNE,5.8,-,0.01,,Overcast,20,2014-02-05 08:53:00
4:06 AM,30.9,28.0,89,30.00,2.5,NE,4.6,-,0.01,,Overcast,40,2014-02-05 09:06:00
4:36 AM,32.0,28.0,85,29.96,1.8,ESE,12.7,-,0.09,Rain,Light Freezing Rain,120,2014-02-05 09:36:00
4:53 AM,32.0,28.9,88,29.99,2.5,NE,5.8,-,0.20,Rain,Light Freezing Rain,50,2014-02-05 09:53:00
5:02 AM,32.0,28.9,88,29.95,3.0,East,6.9,-,0.02,Rain,Light Freezing Rain,90,2014-02-05 10:02:00
5:22 AM,32.0,28.9,88,29.93,2.0,ENE,8.1,-,0.10,Rain,Light Freezing Rain,70,2014-02-05 10:22:00
5:34 AM,32.0,28.9,88,29.94,2.5,NNE,4.6,-,0.16,,Overcast,20,2014-02-05 10:34:00
5:53 AM,32.0,28.9,88,29.93,2.5,ENE,5.8,-,0.24,,Overcast,60,2014-02-05 10:53:00
6:30 AM,32.0,28.9,88,29.88,1.5,East,3.5,-,0.17,,Overcast,80,2014-02-05 11:30:00
6:43 AM,32.0,28.9,88,29.87,2.5,Calm,Calm,-,0.21,,Overcast,0,2014-02-05 11:43:00
6:53 AM,33.1,30.0,89,29.89,2.5,East,3.5,-,0.25,,Overcast,100,2014-02-05 11:53:00
7:08 AM,33.1,30.0,89,29.84,2.5,East,4.6,-,0.05,Rain,Light Rain,100,2014-02-05 12:08:00
7:15 AM,33.1,30.0,89,29.85,4.0,SSE,4.6,-,0.05,Rain,Light Rain,160,2014-02-05 12:15:00
7:53 AM,33.1,30.0,89,29.85,10.0,South,3.5,-,0.07,,Overcast,170,2014-02-05 12:53:00
8:00 AM,33.1,30.0,89,29.83,10.0,Calm,Calm,-,N/A,,Overcast,0,2014-02-05 13:00:00
8:53 AM,33.1,30.0,89,29.80,5.0,South,3.5,-,0.01,Rain,Light Rain,170,2014-02-05 13:53:00
9:05 AM,33.1,30.0,89,29.79,2.5,Calm,Calm,-,0.02,Rain,Light Rain,0,2014-02-05 14:05:00
9:12 AM,33.1,30.0,89,29.79,5.0,South,4.6,-,0.02,Rain,Light Rain,180,2014-02-05 14:12:00
9:42 AM,33.1,30.0,89,29.76,3.0,Calm,Calm,-,0.06,Rain,Light Rain,0,2014-02-05 14:42:00
9:50 AM,33.8,30.2,87,29.76,2.0,Calm,Calm,-,0.07,Rain,Light Rain,0,2014-02-05 14:50:00
9:53 AM,33.1,30.0,89,29.77,2.5,Calm,Calm,-,0.08,Rain,Light Rain,0,2014-02-05 14:53:00
10:00 AM,33.1,30.0,89,29.76,4.0,Calm,Calm,-,0.00,,Overcast,0,2014-02-05 15:00:00
10:40 AM,33.1,30.0,89,29.75,10.0,Calm,Calm,-,0.04,,Overcast,0,2014-02-05 15:40:00
10:53 AM,34.0,30.9,89,29.76,10.0,Calm,Calm,-,0.05,,Overcast,0,2014-02-05 15:53:00
11:53 AM,34.0,30.9,89,29.75,10.0,SSE,3.5,-,0.01,,Overcast,160,2014-02-05 16:53:00
12:53 PM,34.0,30.9,89,29.70,10.0,SSW,4.6,-,N/A,,Overcast,200,2014-02-05 17:53:00
1:53 PM,35.1,30.9,85,29.70,8.0,SW,3.5,-,N/A,,Overcast,230,2014-02-05 18:53:00
2:41 PM,35.1,30.9,85,29.70,6.0,SW,3.5,-,N/A,,Overcast,220,2014-02-05 19:41:00
2:53 PM,36.0,33.1,89,29.72,7.0,South,5.8,-,N/A,,Mostly Cloudy,190,2014-02-05 19:53:00
3:53 PM,43.0,32.0,65,29.72,10.0,West,13.8,-,N/A,,Overcast,260,2014-02-05 20:53:00
4:53 PM,43.0,28.0,56,29.78,10.0,West,25.3,34.5,N/A,,Overcast,260,2014-02-05 21:53:00
5:53 PM,41.0,26.1,55,29.83,10.0,West,24.2,33.4,N/A,,Overcast,260,2014-02-05 22:53:00
6:53 PM,39.0,24.1,55,29.91,10.0,West,16.1,24.2,N/A,,Overcast,270,2014-02-05 23:53:00
7:53 PM,36.0,19.9,52,29.96,10.0,West,20.7,32.2,N/A,,Mostly Cloudy,280,2014-02-06 00:53:00
8:53 PM,33.1,18.0,54,30.05,10.0,NW,8.1,-,N/A,,Overcast,310,2014-02-06 01:53:00
9:53 PM,32.0,18.0,56,30.08,10.0,NW,26.5,33.4,N/A,,Overcast,310,2014-02-06 02:53:00
10:53 PM,30.9,16.0,54,30.12,10.0,NW,24.2,28.8,N/A,,Overcast,310,2014-02-06 03:53:00